This is the latest recevied weather packets stored in our database for station/object KD9JB-1. If no packets are shown the sender has not sent any weather packets the latest 1 day(s).
| Time | Temp. | Humidity | Pressure | Rain* | Wind** | Luminosity | Snow |
|---|---|---|---|---|---|---|---|
| 1778036194 | 9.44° C | 93% | 1008.4 hPa | 4.32 mm | 1.34 m/s, 1° | - | - |
| 1778035895 | 9.44° C | 93% | 1008.5 hPa | 4.06 mm | 1.79 m/s, 1° | - | - |
| 1778035595 | 9.44° C | 93% | 1008.3 hPa | 4.06 mm | 1.79 m/s, 56° | - | - |
| 1778035295 | 10° C | 93% | 1008.9 hPa | 4.06 mm | 2.24 m/s, 16° | - | - |
| 1778034995 | 10° C | 93% | 1009.6 hPa | 2.79 mm | 1.79 m/s, 335° | - | - |
| 1778034695 | 10° C | 93% | 1008.4 hPa | 2.54 mm | 1.79 m/s, 348° | - | - |
| 1778034395 | 10° C | 93% | 1008.1 hPa | 1.78 mm | 1.79 m/s, 6° | - | - |
| 1778034095 | 10° C | 93% | 1008.4 hPa | 1.78 mm | 2.24 m/s, 11° | - | - |
| 1778033795 | 10° C | 93% | 1008.4 hPa | 1.52 mm | 1.79 m/s, 330° | - | - |
| 1778033495 | 10° C | 93% | 1008 hPa | 1.52 mm | 1.34 m/s, 11° | - | - |
| 1778033195 | 10° C | 93% | 1007.9 hPa | 1.52 mm | 1.79 m/s, 347° | - | - |
| 1778032895 | 10° C | 93% | 1007.8 hPa | 1.52 mm | 1.79 m/s, 8° | - | - |
| 1778032595 | 10° C | 93% | 1007.4 hPa | 1.27 mm | 1.34 m/s, 21° | - | - |
| 1778032295 | 10° C | 93% | 1007.3 hPa | 1.27 mm | 1.34 m/s, 308° | - | - |
| 1778031995 | 10° C | 93% | 1007.5 hPa | 1.02 mm | 1.34 m/s, 351° | - | - |
| 1778031695 | 10° C | 93% | 1007.6 hPa | 0.51 mm | 1.34 m/s, 23° | - | - |
| 1778031395 | 10° C | 93% | 1007.5 hPa | 0 mm | 0.89 m/s, 326° | - | - |
| 1778031095 | 10° C | 93% | 1007.4 hPa | 0 mm | 0.89 m/s, 8° | - | - |
| 1778030795 | 10° C | 93% | 1007.4 hPa | 0 mm | 0.45 m/s, 25° | - | - |
| 1778030495 | 10° C | 92% | 1007.4 hPa | 0 mm | 0.45 m/s, 206° | - | - |
| 1778030195 | 10° C | 92% | 1007.4 hPa | 0 mm | 0.89 m/s, 35° | - | - |
| 1778029895 | 10.56° C | 93% | 1007.4 hPa | 0.25 mm | 0.89 m/s, 178° | - | - |
| 1778029595 | 10.56° C | 93% | 1007.4 hPa | 1.27 mm | 0.89 m/s, 56° | - | - |
| 1778029295 | 10.56° C | 93% | 1007.4 hPa | 1.27 mm | 0.89 m/s, 145° | - | - |
| 1778028995 | 10.56° C | 93% | 1007.3 hPa | 1.27 mm | 0.89 m/s, 35° | - | - |
* Rain latest hour (hover to see other rain measurements)
** Current wind speed in m/s (hover to see current wind gust speed)